Location: Croissy-Beaubourg
(48.8283°N, 2.6696°E)
Time: 00:22:31
(UTC+00:00)

USA 215 - Pass Details

Date: 28 May 2022
Orbit: 1099 x 1108 km, 123.0° (Epoch: 10 June)

Event Time Altitude Azimuth Distance (km) Brightness Sun altitude
Rises 02:18:22 0° 71° (ENE) 3,920 7.1 -12.0°
Reaches altitude 10° 02:20:57 10° 65° (ENE) 2,963 6.6 -11.8°
Maximum altitude 02:27:04 44° 356° (N) 1,486 4.4 -11.2°
Drops below altitude 10° 02:33:11 10° 287° (WNW) 2,968 5.3 -10.5°
Sets 02:35:46 0° 282° (WNW) 3,927 5.9 -10.3°
